Time,TemperatureF,DewpointF,PressureIn,WindDirection,WindDirectionDegrees,WindSpeedMPH,WindSpeedGustMPH,Humidity,HourlyPrecipIn,Conditions,Clouds,dailyrainin,SoftwareType,DateUTC
2013-10-08 00:00:00,54.0,52.6,29.96,NNE,28,0.0,0.0,95,0.00,,,0.00,Wunderground v.1.15,2013-10-08 04:00:00,
2013-10-08 00:01:00,54.0,52.9,29.96,NNE,28,0.0,0.0,96,0.00,,,0.00,Wunderground v.1.15,2013-10-08 04:01:00,
2013-10-08 00:03:00,54.0,52.9,29.96,NNE,28,0.0,0.0,96,0.00,,,0.00,Wunderground v.1.15,2013-10-08 04:03:00,
2013-10-08 00:04:00,54.0,52.9,29.96,NNE,28,0.0,0.0,96,0.00,,,0.00,Wunderground v.1.15,2013-10-08 04:04:00,
2013-10-08 00:09:00,53.9,52.8,29.96,NNE,28,0.0,0.0,96,0.00,,,0.00,Wunderground v.1.15,2013-10-08 04:09:00,
2013-10-08 00:14:00,53.9,52.5,29.96,NNE,28,0.0,0.0,95,0.00,,,0.00,Wunderground v.1.15,2013-10-08 04:14:00,
2013-10-08 00:20:00,53.6,52.2,29.96,NNE,28,0.0,0.0,95,0.00,,,0.00,Wunderground v.1.15,2013-10-08 04:20:00,
2013-10-08 00:25:00,53.6,52.2,29.96,NNE,28,0.0,0.0,95,0.00,,,0.00,Wunderground v.1.15,2013-10-08 04:25:00,
2013-10-08 00:30:00,53.5,52.1,29.96,NNE,28,0.0,0.0,95,0.00,,,0.00,Wunderground v.1.15,2013-10-08 04:30:00,
2013-10-08 00:36:00,53.2,51.8,29.97,NNE,28,0.0,0.0,95,0.00,,,0.00,Wunderground v.1.15,2013-10-08 04:36:00,
2013-10-08 00:41:00,53.3,52.2,29.97,NNE,28,0.0,0.0,96,0.00,,,0.00,Wunderground v.1.15,2013-10-08 04:41:00,
2013-10-08 00:47:00,53.3,52.2,29.97,NNE,28,0.0,0.0,96,0.00,,,0.00,Wunderground v.1.15,2013-10-08 04:47:00,
2013-10-08 00:52:00,53.3,52.2,29.97,NNE,28,0.0,0.0,96,0.00,,,0.00,Wunderground v.1.15,2013-10-08 04:52:00,
2013-10-08 00:58:00,53.1,52.0,29.97,NNE,28,0.0,0.0,96,0.00,,,0.00,Wunderground v.1.15,2013-10-08 04:58:00,
2013-10-08 01:00:00,66.0,46.3,30.19,East,90,2.0,12.0,49,0.00,,,-99.99,WeatherLink 6.0.3,2013-10-08 05:00:00,
2013-10-08 01:03:00,52.9,51.8,29.97,NNE,28,0.0,0.0,96,0.00,,,0.00,Wunderground v.1.15,2013-10-08 05:03:00,
2013-10-08 01:08:00,52.8,51.7,29.97,NNE,28,0.0,0.0,96,0.00,,,0.00,Wunderground v.1.15,2013-10-08 05:08:00,
2013-10-08 01:14:00,52.7,51.6,29.97,NNE,28,0.0,0.0,96,0.00,,,0.00,Wunderground v.1.15,2013-10-08 05:14:00,
2013-10-08 01:19:00,52.5,51.4,29.97,NNE,28,0.0,0.0,96,0.00,,,0.00,Wunderground v.1.15,2013-10-08 05:19:00,
2013-10-08 01:25:00,52.5,51.4,29.97,NNE,28,0.0,0.0,96,0.00,,,0.00,Wunderground v.1.15,2013-10-08 05:25:00,
2013-10-08 01:30:00,52.5,51.4,29.97,NNE,28,0.0,0.0,96,0.00,,,0.00,Wunderground v.1.15,2013-10-08 05:30:00,
2013-10-08 01:35:00,52.5,51.7,29.97,NNE,28,0.0,0.0,97,0.00,,,0.00,Wunderground v.1.15,2013-10-08 05:35:00,
2013-10-08 01:41:00,52.5,51.7,29.97,NNE,28,0.0,0.0,97,0.00,,,0.00,Wunderground v.1.15,2013-10-08 05:41:00,
2013-10-08 01:46:00,52.6,51.8,29.97,NNE,28,0.0,0.0,97,0.00,,,0.00,Wunderground v.1.15,2013-10-08 05:46:00,
2013-10-08 01:52:00,52.6,51.8,29.97,NNE,28,0.0,0.0,97,0.00,,,0.00,Wunderground v.1.15,2013-10-08 05:52:00,
2013-10-08 01:57:00,52.5,51.7,29.97,NNE,28,0.0,0.0,97,0.00,,,0.00,Wunderground v.1.15,2013-10-08 05:57:00,
2013-10-08 02:00:00,68.3,47.3,30.17,ESE,112,2.0,10.0,47,0.00,,,-99.99,WeatherLink 6.0.3,2013-10-08 06:00:00,
2013-10-08 02:03:00,52.6,51.8,29.97,NNE,28,0.0,0.0,97,0.00,,,0.00,Wunderground v.1.15,2013-10-08 06:03:00,
2013-10-08 02:08:00,52.6,51.8,29.97,NNE,28,0.0,1.0,97,0.00,,,0.00,Wunderground v.1.15,2013-10-08 06:08:00,
2013-10-08 02:13:00,52.6,51.8,29.97,NNE,28,0.0,0.0,97,0.00,,,0.00,Wunderground v.1.15,2013-10-08 06:13:00,
2013-10-08 02:18:00,52.5,51.4,29.97,NNE,28,0.0,0.0,96,0.00,,,0.00,Wunderground v.1.15,2013-10-08 06:18:00,
2013-10-08 02:23:00,52.5,51.4,29.97,NNE,28,0.0,1.0,96,0.00,,,0.00,Wunderground v.1.15,2013-10-08 06:23:00,
2013-10-08 02:28:00,52.6,51.5,29.98,NNE,28,0.0,1.0,96,0.00,,,0.00,Wunderground v.1.15,2013-10-08 06:28:00,
2013-10-08 02:30:00,71.3,47.0,30.15,East,90,2.0,13.0,42,0.00,,,-99.99,WeatherLink 6.0.3,2013-10-08 06:30:00,
2013-10-08 02:33:00,52.6,51.5,29.98,NNE,28,0.0,0.0,96,0.00,,,0.00,Wunderground v.1.15,2013-10-08 06:33:00,
2013-10-08 02:38:00,52.6,51.2,29.98,NNE,28,0.0,0.0,95,0.00,,,0.00,Wunderground v.1.15,2013-10-08 06:38:00,
2013-10-08 02:43:00,52.7,51.6,29.97,NNE,28,0.0,0.0,96,0.00,,,0.00,Wunderground v.1.15,2013-10-08 06:43:00,
2013-10-08 02:48:00,52.6,51.2,29.97,NNE,28,0.0,0.0,95,0.00,,,0.00,Wunderground v.1.15,2013-10-08 06:48:00,
2013-10-08 02:53:00,52.4,51.0,29.97,NNE,28,0.0,1.0,95,0.00,,,0.00,Wunderground v.1.15,2013-10-08 06:53:00,
2013-10-08 02:58:00,52.2,50.8,29.97,NNE,28,0.0,1.0,95,0.00,,,0.00,Wunderground v.1.15,2013-10-08 06:58:00,
2013-10-08 03:00:00,68.9,46.7,30.15,NNE,22,2.0,11.0,45,0.00,,,-99.99,WeatherLink 6.0.3,2013-10-08 07:00:00,
2013-10-08 03:03:00,52.1,50.7,29.97,NNE,28,0.0,0.0,95,0.00,,,0.00,Wunderground v.1.15,2013-10-08 07:03:00,
2013-10-08 03:08:00,52.1,51.0,29.97,NNE,28,0.0,0.0,96,0.00,,,0.00,Wunderground v.1.15,2013-10-08 07:08:00,
2013-10-08 03:13:00,52.1,50.7,29.97,NNE,28,0.0,0.0,95,0.00,,,0.00,Wunderground v.1.15,2013-10-08 07:13:00,
2013-10-08 03:18:00,52.1,51.0,29.98,NNE,28,0.0,0.0,96,0.00,,,0.00,Wunderground v.1.15,2013-10-08 07:18:00,
2013-10-08 03:23:00,52.2,50.8,29.98,NNE,28,0.0,0.0,95,0.00,,,0.00,Wunderground v.1.15,2013-10-08 07:23:00,
2013-10-08 03:28:00,52.4,51.0,29.98,NNE,28,0.0,0.0,95,0.00,,,0.00,Wunderground v.1.15,2013-10-08 07:28:00,
2013-10-08 03:30:00,71.7,48.0,30.12,NNW,337,2.0,10.0,43,0.00,,,-99.99,WeatherLink 6.0.3,2013-10-08 07:30:00,
2013-10-08 03:33:00,52.5,51.1,29.98,NNE,28,0.0,0.0,95,0.00,,,0.00,Wunderground v.1.15,2013-10-08 07:33:00,
2013-10-08 03:38:00,52.4,51.0,29.98,NNE,28,0.0,0.0,95,0.00,,,0.00,Wunderground v.1.15,2013-10-08 07:38:00,
2013-10-08 03:43:00,52.3,50.6,29.98,NNE,28,0.0,0.0,94,0.00,,,0.00,Wunderground v.1.15,2013-10-08 07:43:00,
2013-10-08 03:48:00,52.3,50.9,29.98,NNE,28,0.0,0.0,95,0.00,,,0.00,Wunderground v.1.15,2013-10-08 07:48:00,
2013-10-08 03:53:00,52.3,50.6,29.98,NNE,28,0.0,0.0,94,0.00,,,0.00,Wunderground v.1.15,2013-10-08 07:53:00,
2013-10-08 03:58:00,52.2,50.5,29.97,NNE,28,0.0,0.0,94,0.00,,,0.00,Wunderground v.1.15,2013-10-08 07:58:00,
2013-10-08 04:00:00,74.6,48.7,30.10,ENE,67,1.0,9.0,40,0.00,,,-99.99,WeatherLink 6.0.3,2013-10-08 08:00:00,
2013-10-08 04:03:00,52.2,50.2,29.98,NNE,28,0.0,1.0,93,0.00,,,0.00,Wunderground v.1.15,2013-10-08 08:03:00,
2013-10-08 04:08:00,52.2,50.5,29.98,NNE,28,0.0,1.0,94,0.00,,,0.00,Wunderground v.1.15,2013-10-08 08:08:00,
2013-10-08 04:14:00,52.4,50.4,29.98,NNE,28,0.0,0.0,93,0.00,,,0.00,Wunderground v.1.15,2013-10-08 08:14:00,
2013-10-08 04:18:00,52.6,50.6,29.99,NNE,28,0.0,0.0,93,0.00,,,0.00,Wunderground v.1.15,2013-10-08 08:18:00,
2013-10-08 04:24:00,52.7,50.4,29.99,NNE,28,0.0,0.0,92,0.00,,,0.00,Wunderground v.1.15,2013-10-08 08:24:00,
2013-10-08 04:29:00,52.7,49.8,30.00,NNE,28,0.0,0.0,90,0.00,,,0.00,Wunderground v.1.15,2013-10-08 08:29:00,
2013-10-08 04:30:00,74.1,47.6,30.09,ESE,112,2.0,12.0,39,0.00,,,-99.99,WeatherLink 6.0.3,2013-10-08 08:30:00,
2013-10-08 04:34:00,52.7,50.1,30.00,NNE,28,0.0,0.0,91,0.00,,,0.00,Wunderground v.1.15,2013-10-08 08:34:00,
2013-10-08 04:39:00,52.6,50.0,30.00,NNE,28,0.0,0.0,91,0.00,,,0.00,Wunderground v.1.15,2013-10-08 08:39:00,
2013-10-08 04:44:00,52.4,49.8,30.01,NNE,28,0.0,0.0,91,0.00,,,0.00,Wunderground v.1.15,2013-10-08 08:44:00,
2013-10-08 04:49:00,52.1,49.8,30.01,NNE,28,0.0,1.0,92,0.00,,,0.00,Wunderground v.1.15,2013-10-08 08:49:00,
2013-10-08 04:54:00,51.9,49.6,30.01,NNE,28,0.0,1.0,92,0.00,,,0.00,Wunderground v.1.15,2013-10-08 08:54:00,
2013-10-08 04:59:00,51.7,49.7,30.01,NNE,28,0.0,1.0,93,0.00,,,0.00,Wunderground v.1.15,2013-10-08 08:59:00,
2013-10-08 05:00:00,74.9,48.3,30.08,ESE,112,2.0,12.0,39,0.00,,,-99.99,WeatherLink 6.0.3,2013-10-08 09:00:00,
2013-10-08 05:04:00,51.6,49.6,30.01,NNE,28,0.0,0.0,93,0.00,,,0.00,Wunderground v.1.15,2013-10-08 09:04:00,
2013-10-08 05:09:00,51.5,49.5,30.01,NNE,28,0.0,0.0,93,0.00,,,0.00,Wunderground v.1.15,2013-10-08 09:09:00,
2013-10-08 05:14:00,51.5,49.5,30.01,NNE,28,0.0,0.0,93,0.00,,,0.00,Wunderground v.1.15,2013-10-08 09:14:00,
2013-10-08 05:19:00,51.7,49.7,30.01,NNE,28,0.0,0.0,93,0.00,,,0.00,Wunderground v.1.15,2013-10-08 09:19:00,
2013-10-08 05:24:00,51.8,49.5,30.01,NNE,28,0.0,0.0,92,0.00,,,0.00,Wunderground v.1.15,2013-10-08 09:24:00,
2013-10-08 05:29:00,51.7,49.5,30.02,NNE,28,0.0,0.0,92,0.00,,,0.00,Wunderground v.1.15,2013-10-08 09:29:00,
2013-10-08 05:30:00,73.6,47.1,30.08,ESE,112,1.0,9.0,39,0.00,,,-99.99,WeatherLink 6.0.3,2013-10-08 09:30:00,
2013-10-08 05:34:00,51.8,49.5,30.02,NNE,28,0.0,0.0,92,0.00,,,0.00,Wunderground v.1.15,2013-10-08 09:34:00,
2013-10-08 05:39:00,51.8,49.3,30.02,NNE,28,0.0,0.0,91,0.00,,,0.00,Wunderground v.1.15,2013-10-08 09:39:00,
2013-10-08 05:44:00,51.9,49.4,30.03,NNE,28,0.0,0.0,91,0.00,,,0.00,Wunderground v.1.15,2013-10-08 09:44:00,
2013-10-08 05:49:00,51.9,49.6,30.03,NNE,28,0.0,0.0,92,0.00,,,0.00,Wunderground v.1.15,2013-10-08 09:49:00,
2013-10-08 05:54:00,51.8,49.5,30.04,NNE,28,0.0,0.0,92,0.00,,,0.00,Wunderground v.1.15,2013-10-08 09:54:00,
2013-10-08 05:59:00,51.8,49.8,30.04,NNE,28,0.0,0.0,93,0.00,,,0.00,Wunderground v.1.15,2013-10-08 09:59:00,
2013-10-08 06:00:00,70.7,47.7,30.08,ESE,112,1.0,7.0,44,0.00,,,-99.99,WeatherLink 6.0.3,2013-10-08 10:00:00,
2013-10-08 06:04:00,51.8,49.8,30.04,NNE,28,0.0,0.0,93,0.00,,,0.00,Wunderground v.1.15,2013-10-08 10:04:00,
2013-10-08 06:09:00,51.8,49.5,30.05,NNE,28,0.0,0.0,92,0.00,,,0.00,Wunderground v.1.15,2013-10-08 10:09:00,
2013-10-08 06:14:00,51.6,49.1,30.05,NNE,28,0.0,0.0,91,0.00,,,0.00,Wunderground v.1.15,2013-10-08 10:14:00,
2013-10-08 06:20:00,51.5,49.3,30.05,NNE,28,0.0,0.0,92,0.00,,,0.00,Wunderground v.1.15,2013-10-08 10:20:00,
2013-10-08 06:25:00,51.4,49.2,30.05,NNE,28,0.0,0.0,92,0.00,,,0.00,Wunderground v.1.15,2013-10-08 10:25:00,
2013-10-08 06:30:00,51.4,49.2,30.06,NNE,28,0.0,0.0,92,0.00,,,0.00,Wunderground v.1.15,2013-10-08 10:30:00,
2013-10-08 06:35:00,51.3,49.1,30.06,NNE,28,0.0,0.0,92,0.00,,,0.00,Wunderground v.1.15,2013-10-08 10:35:00,
2013-10-08 06:40:00,51.2,49.0,30.06,NNE,28,0.0,0.0,92,0.00,,,0.00,Wunderground v.1.15,2013-10-08 10:40:00,
2013-10-08 06:45:00,51.1,48.6,30.07,NNE,28,0.0,0.0,91,0.00,,,0.00,Wunderground v.1.15,2013-10-08 10:45:00,
2013-10-08 06:50:00,51.1,48.9,30.07,NNE,28,0.0,0.0,92,0.00,,,0.00,Wunderground v.1.15,2013-10-08 10:50:00,
2013-10-08 06:55:00,51.2,49.0,30.07,NNE,28,0.0,0.0,92,0.00,,,0.00,Wunderground v.1.15,2013-10-08 10:55:00,
2013-10-08 07:00:00,51.2,49.0,30.08,NNE,28,0.0,0.0,92,0.00,,,0.00,Wunderground v.1.15,2013-10-08 11:00:00,
2013-10-08 07:05:00,51.2,48.7,30.08,NNE,28,0.0,0.0,91,0.00,,,0.00,Wunderground v.1.15,2013-10-08 11:05:00,
2013-10-08 07:10:00,51.1,48.9,30.08,NNE,28,0.0,0.0,92,0.00,,,0.00,Wunderground v.1.15,2013-10-08 11:10:00,
2013-10-08 07:15:00,51.2,48.7,30.08,NNE,28,0.0,0.0,91,0.00,,,0.00,Wunderground v.1.15,2013-10-08 11:15:00,
2013-10-08 07:20:00,51.3,48.8,30.09,NNE,28,0.0,0.0,91,0.00,,,0.00,Wunderground v.1.15,2013-10-08 11:20:00,
2013-10-08 07:25:00,51.4,48.6,30.09,WSW,248,0.0,0.0,90,0.00,,,0.00,Wunderground v.1.15,2013-10-08 11:25:00,
2013-10-08 07:30:00,51.4,48.6,30.09,WSW,248,0.0,0.0,90,0.00,,,0.00,Wunderground v.1.15,2013-10-08 11:30:00,
2013-10-08 07:35:00,51.3,48.5,30.09,WSW,248,0.0,0.0,90,0.00,,,0.00,Wunderground v.1.15,2013-10-08 11:35:00,
2013-10-08 07:40:00,51.1,48.6,30.10,WSW,248,0.0,0.0,91,0.00,,,0.00,Wunderground v.1.15,2013-10-08 11:40:00,
2013-10-08 07:45:00,51.1,48.6,30.10,WSW,248,0.0,0.0,91,0.00,,,0.00,Wunderground v.1.15,2013-10-08 11:45:00,
2013-10-08 07:50:00,51.2,49.0,30.10,WSW,248,0.0,0.0,92,0.00,,,0.00,Wunderground v.1.15,2013-10-08 11:50:00,
2013-10-08 07:55:00,51.1,48.9,30.11,WSW,248,0.0,0.0,92,0.00,,,0.00,Wunderground v.1.15,2013-10-08 11:55:00,
2013-10-08 08:00:00,51.0,48.8,30.11,WSW,248,0.0,0.0,92,0.00,,,0.00,Wunderground v.1.15,2013-10-08 12:00:00,
2013-10-08 08:05:00,51.0,49.0,30.11,WSW,248,0.0,0.0,93,0.00,,,0.00,Wunderground v.1.15,2013-10-08 12:05:00,
2013-10-08 08:11:00,51.2,49.2,30.12,WSW,248,0.0,0.0,93,0.00,,,0.00,Wunderground v.1.15,2013-10-08 12:11:00,
2013-10-08 08:16:00,51.4,49.4,30.12,WSW,248,0.0,0.0,93,0.00,,,0.00,Wunderground v.1.15,2013-10-08 12:16:00,
2013-10-08 08:21:00,51.8,49.3,30.12,WSW,248,0.0,0.0,91,0.00,,,0.00,Wunderground v.1.15,2013-10-08 12:21:00,
2013-10-08 08:26:00,52.2,49.4,30.13,WNW,300,0.0,2.0,90,0.00,,,0.00,Wunderground v.1.15,2013-10-08 12:26:00,
2013-10-08 08:30:00,63.0,51.5,30.09,ESE,112,0.0,1.0,66,0.00,,,-99.99,WeatherLink 6.0.3,2013-10-08 12:30:00,
2013-10-08 08:31:00,52.7,49.5,30.13,WNW,299,0.0,0.0,89,0.00,,,0.00,Wunderground v.1.15,2013-10-08 12:31:00,
2013-10-08 08:36:00,53.1,49.6,30.13,North,11,1.0,2.0,88,0.00,,,0.00,Wunderground v.1.15,2013-10-08 12:36:00,
2013-10-08 08:41:00,53.7,49.9,30.13,NNE,15,0.0,0.0,87,0.00,,,0.00,Wunderground v.1.15,2013-10-08 12:41:00,
2013-10-08 08:46:00,54.4,50.3,30.13,NNE,15,0.0,1.0,86,0.00,,,0.00,Wunderground v.1.15,2013-10-08 12:46:00,
2013-10-08 08:51:00,54.9,50.5,30.13,South,186,0.0,1.0,85,0.00,,,0.00,Wunderground v.1.15,2013-10-08 12:51:00,
2013-10-08 08:56:00,55.3,50.5,30.13,NNE,25,3.0,4.0,84,0.00,,,0.00,Wunderground v.1.15,2013-10-08 12:56:00,
2013-10-08 09:00:00,59.1,51.2,30.10,North,-999,0.0,0.0,75,0.00,,,-99.99,WeatherLink 6.0.3,2013-10-08 13:00:00,
2013-10-08 09:01:00,55.7,50.6,30.13,NNE,17,0.0,2.0,83,0.00,,,0.00,Wunderground v.1.15,2013-10-08 13:01:00,
2013-10-08 09:06:00,56.3,50.9,30.13,NE,34,0.0,4.0,82,0.00,,,0.00,Wunderground v.1.15,2013-10-08 13:06:00,
2013-10-08 09:11:00,56.8,51.4,30.13,North,360,0.0,1.0,82,0.00,,,0.00,Wunderground v.1.15,2013-10-08 13:11:00,
2013-10-08 09:16:00,56.9,51.1,30.13,NNE,19,0.0,4.0,81,0.00,,,0.00,Wunderground v.1.15,2013-10-08 13:16:00,
2013-10-08 09:21:00,56.8,51.0,30.13,WNW,290,1.0,7.0,81,0.00,,,0.00,Wunderground v.1.15,2013-10-08 13:21:00,
2013-10-08 09:26:00,56.7,51.3,30.14,North,9,0.0,7.0,82,0.00,,,0.00,Wunderground v.1.15,2013-10-08 13:26:00,
2013-10-08 09:30:00,57.5,51.0,30.10,North,-999,0.0,0.0,79,0.00,,,-99.99,WeatherLink 6.0.3,2013-10-08 13:30:00,
2013-10-08 09:31:00,56.7,50.9,30.14,NNE,30,0.0,4.0,81,0.00,,,0.00,Wunderground v.1.15,2013-10-08 13:31:00,
2013-10-08 09:36:00,56.7,51.3,30.14,NNE,30,0.0,4.0,82,0.00,,,0.00,Wunderground v.1.15,2013-10-08 13:36:00,
2013-10-08 09:41:00,56.9,51.5,30.14,NNE,30,0.0,1.0,82,0.00,,,0.00,Wunderground v.1.15,2013-10-08 13:41:00,
2013-10-08 09:46:00,57.0,51.6,30.15,NNE,30,2.0,2.0,82,0.00,,,0.00,Wunderground v.1.15,2013-10-08 13:46:00,
2013-10-08 09:51:00,57.1,50.6,30.15,NE,42,0.0,1.0,79,0.00,,,0.00,Wunderground v.1.15,2013-10-08 13:51:00,
2013-10-08 09:56:00,57.4,50.2,30.15,NNE,13,0.0,4.0,77,0.00,,,0.00,Wunderground v.1.15,2013-10-08 13:56:00,
2013-10-08 10:00:00,55.7,50.6,30.11,ESE,112,0.0,1.0,83,0.00,,,-99.99,WeatherLink 6.0.3,2013-10-08 14:00:00,
2013-10-08 10:01:00,57.7,50.2,30.14,North,355,0.0,1.0,76,0.00,,,0.00,Wunderground v.1.15,2013-10-08 14:01:00,
2013-10-08 10:06:00,58.0,49.8,30.14,North,355,0.0,2.0,74,0.00,,,0.00,Wunderground v.1.15,2013-10-08 14:06:00,
2013-10-08 10:11:00,58.2,50.0,30.14,North,355,0.0,1.0,74,0.00,,,0.00,Wunderground v.1.15,2013-10-08 14:11:00,
2013-10-08 10:17:00,58.2,49.2,30.14,WNW,296,0.0,7.0,72,0.00,,,0.00,Wunderground v.1.15,2013-10-08 14:17:00,
2013-10-08 10:22:00,58.1,49.5,30.14,NE,44,0.0,2.0,73,0.00,,,0.00,Wunderground v.1.15,2013-10-08 14:22:00,
2013-10-08 10:26:00,58.2,49.6,30.15,NNE,26,0.0,3.0,73,0.00,,,0.00,Wunderground v.1.15,2013-10-08 14:26:00,
2013-10-08 10:30:00,54.6,50.5,30.11,ESE,112,0.0,1.0,86,0.00,,,-99.99,WeatherLink 6.0.3,2013-10-08 14:30:00,
2013-10-08 10:31:00,58.4,49.4,30.15,NNE,26,0.0,1.0,72,0.00,,,0.00,Wunderground v.1.15,2013-10-08 14:31:00,
2013-10-08 10:37:00,58.7,49.3,30.15,North,5,2.0,6.0,71,0.00,,,0.00,Wunderground v.1.15,2013-10-08 14:37:00,
2013-10-08 10:42:00,58.9,49.5,30.15,NW,319,3.0,6.0,71,0.00,,,0.00,Wunderground v.1.15,2013-10-08 14:42:00,
2013-10-08 10:47:00,59.0,50.0,30.15,NNE,17,0.0,6.0,72,0.00,,,0.00,Wunderground v.1.15,2013-10-08 14:47:00,
2013-10-08 10:52:00,59.0,50.0,30.15,NW,321,0.0,4.0,72,0.00,,,0.00,Wunderground v.1.15,2013-10-08 14:52:00,
2013-10-08 10:57:00,59.2,49.8,30.15,NW,315,2.0,4.0,71,0.00,,,0.00,Wunderground v.1.15,2013-10-08 14:57:00,
2013-10-08 11:00:00,54.2,50.4,30.11,ESE,112,0.0,1.0,87,0.00,,,-99.99,WeatherLink 6.0.3,2013-10-08 15:00:00,
2013-10-08 11:02:00,59.8,49.2,30.15,East,79,4.0,14.0,68,0.00,,,0.00,Wunderground v.1.15,2013-10-08 15:02:00,
2013-10-08 11:07:00,60.4,50.2,30.15,ESE,106,7.0,16.0,69,0.00,,,0.00,Wunderground v.1.15,2013-10-08 15:07:00,
2013-10-08 11:12:00,61.1,50.1,30.15,SE,130,1.0,7.0,67,0.00,,,0.00,Wunderground v.1.15,2013-10-08 15:12:00,
2013-10-08 11:17:00,62.0,50.5,30.15,ESE,113,5.0,12.0,66,0.00,,,0.00,Wunderground v.1.15,2013-10-08 15:17:00,
2013-10-08 11:22:00,63.1,50.3,30.15,East,82,0.0,10.0,63,0.00,,,0.00,Wunderground v.1.15,2013-10-08 15:22:00,
2013-10-08 11:27:00,63.8,50.5,30.15,ENE,69,0.0,10.0,62,0.00,,,0.00,Wunderground v.1.15,2013-10-08 15:27:00,
2013-10-08 11:30:00,53.5,50.3,30.11,ESE,112,0.0,1.0,89,0.00,,,-99.99,WeatherLink 6.0.3,2013-10-08 15:30:00,
2013-10-08 11:32:00,64.5,50.3,30.15,SSW,207,1.0,4.0,60,0.00,,,0.00,Wunderground v.1.15,2013-10-08 15:32:00,
2013-10-08 11:37:00,64.8,50.1,30.15,ESE,106,6.0,11.0,59,0.00,,,0.00,Wunderground v.1.15,2013-10-08 15:37:00,
2013-10-08 11:42:00,65.1,50.4,30.14,East,86,6.0,14.0,59,0.00,,,0.00,Wunderground v.1.15,2013-10-08 15:42:00,
2013-10-08 11:47:00,64.1,49.5,30.15,East,96,5.0,15.0,59,0.00,,,0.00,Wunderground v.1.15,2013-10-08 15:47:00,
2013-10-08 11:52:00,63.3,50.1,30.15,SE,132,4.0,14.0,62,0.00,,,0.00,Wunderground v.1.15,2013-10-08 15:52:00,
2013-10-08 11:57:00,63.3,49.6,30.15,ESE,121,3.0,14.0,61,0.00,,,0.00,Wunderground v.1.15,2013-10-08 15:57:00,
2013-10-08 12:00:00,53.3,50.1,30.12,North,-999,0.0,0.0,89,0.00,,,-99.99,WeatherLink 6.0.3,2013-10-08 16:00:00,
2013-10-08 12:02:00,63.2,50.8,30.15,ESE,116,1.0,11.0,64,0.00,,,0.00,Wunderground v.1.15,2013-10-08 16:02:00,
2013-10-08 12:07:00,63.3,50.5,30.15,East,98,5.0,11.0,63,0.00,,,0.00,Wunderground v.1.15,2013-10-08 16:07:00,
2013-10-08 12:13:00,63.4,50.6,30.15,NW,326,2.0,7.0,63,0.00,,,0.00,Wunderground v.1.15,2013-10-08 16:13:00,
2013-10-08 12:18:00,63.4,50.6,30.15,East,82,0.0,7.0,63,0.00,,,0.00,Wunderground v.1.15,2013-10-08 16:18:00,
2013-10-08 12:23:00,63.3,50.5,30.14,East,84,8.0,8.0,63,0.00,,,0.00,Wunderground v.1.15,2013-10-08 16:23:00,
2013-10-08 12:28:00,63.5,50.7,30.14,NNW,345,1.0,11.0,63,0.00,,,0.00,Wunderground v.1.15,2013-10-08 16:28:00,
2013-10-08 12:30:00,53.8,49.1,30.11,ESE,112,0.0,4.0,84,0.00,,,-99.99,WeatherLink 6.0.3,2013-10-08 16:30:00,
2013-10-08 12:33:00,63.8,51.0,30.14,ENE,70,0.0,7.0,63,0.00,,,0.00,Wunderground v.1.15,2013-10-08 16:33:00,
2013-10-08 12:38:00,64.0,51.1,30.14,ENE,71,2.0,14.0,63,0.00,,,0.00,Wunderground v.1.15,2013-10-08 16:38:00,
2013-10-08 12:43:00,64.4,51.1,30.14,ENE,65,0.0,11.0,62,0.00,,,0.00,Wunderground v.1.15,2013-10-08 16:43:00,
2013-10-08 12:48:00,64.6,51.3,30.14,East,93,2.0,11.0,62,0.00,,,0.00,Wunderground v.1.15,2013-10-08 16:48:00,
2013-10-08 12:53:00,64.8,51.5,30.14,East,80,3.0,8.0,62,0.00,,,0.00,Wunderground v.1.15,2013-10-08 16:53:00,
2013-10-08 12:58:00,65.0,51.7,30.13,SE,145,1.0,9.0,62,0.00,,,0.00,Wunderground v.1.15,2013-10-08 16:58:00,
2013-10-08 13:00:00,53.8,49.1,30.10,North,-999,0.0,0.0,84,0.00,,,-99.99,WeatherLink 6.0.3,2013-10-08 17:00:00,
2013-10-08 13:04:00,65.8,52.0,30.13,ESE,107,6.0,7.0,61,0.00,,,0.00,Wunderground v.1.15,2013-10-08 17:04:00,
2013-10-08 13:08:00,65.9,51.2,30.13,NE,53,1.0,7.0,59,0.00,,,0.00,Wunderground v.1.15,2013-10-08 17:08:00,
2013-10-08 13:13:00,66.0,52.6,30.13,NNW,342,0.0,5.0,62,0.00,,,0.00,Wunderground v.1.15,2013-10-08 17:13:00,
2013-10-08 13:19:00,66.7,52.4,30.12,SE,146,7.0,8.0,60,0.00,,,0.00,Wunderground v.1.15,2013-10-08 17:19:00,
2013-10-08 13:24:00,66.7,52.4,30.12,ESE,122,4.0,15.0,60,0.00,,,0.00,Wunderground v.1.15,2013-10-08 17:24:00,
2013-10-08 13:29:00,67.2,52.4,30.11,ESE,111,0.0,15.0,59,0.00,,,0.00,Wunderground v.1.15,2013-10-08 17:29:00,
2013-10-08 13:30:00,51.8,48.7,30.10,ESE,112,0.0,1.0,89,0.00,,,-99.99,WeatherLink 6.0.3,2013-10-08 17:30:00,
2013-10-08 13:34:00,67.9,52.6,30.11,East,94,3.0,10.0,58,0.00,,,0.00,Wunderground v.1.15,2013-10-08 17:34:00,
2013-10-08 13:39:00,67.9,52.6,30.11,ENE,69,0.0,10.0,58,0.00,,,0.00,Wunderground v.1.15,2013-10-08 17:39:00,
2013-10-08 13:44:00,68.5,53.1,30.11,North,5,0.0,6.0,58,0.00,,,0.00,Wunderground v.1.15,2013-10-08 17:44:00,
2013-10-08 13:49:00,68.8,52.9,30.10,East,101,3.0,13.0,57,0.00,,,0.00,Wunderground v.1.15,2013-10-08 17:49:00,
2013-10-08 13:54:00,69.0,53.1,30.10,East,94,0.0,9.0,57,0.00,,,0.00,Wunderground v.1.15,2013-10-08 17:54:00,
2013-10-08 13:59:00,69.1,53.7,30.10,NNE,13,0.0,9.0,58,0.00,,,0.00,Wunderground v.1.15,2013-10-08 17:59:00,
2013-10-08 14:00:00,51.9,48.8,30.08,ESE,112,0.0,1.0,89,0.00,,,-99.99,WeatherLink 6.0.3,2013-10-08 18:00:00,
2013-10-08 14:04:00,69.5,54.5,30.10,SE,141,0.0,9.0,59,0.00,,,0.00,Wunderground v.1.15,2013-10-08 18:04:00,
2013-10-08 14:09:00,69.3,53.9,30.10,SE,127,0.0,10.0,58,0.00,,,0.00,Wunderground v.1.15,2013-10-08 18:09:00,
2013-10-08 14:14:00,69.2,53.3,30.10,NW,321,4.0,11.0,57,0.00,,,0.00,Wunderground v.1.15,2013-10-08 18:14:00,
2013-10-08 14:19:00,69.2,54.3,30.10,East,80,1.0,11.0,59,0.00,,,0.00,Wunderground v.1.15,2013-10-08 18:19:00,
2013-10-08 14:24:00,69.0,53.1,30.10,NNE,15,0.0,8.0,57,0.00,,,0.00,Wunderground v.1.15,2013-10-08 18:24:00,
2013-10-08 14:29:00,68.8,54.3,30.10,North,355,7.0,8.0,60,0.00,,,0.00,Wunderground v.1.15,2013-10-08 18:29:00,
2013-10-08 14:30:00,50.6,48.1,30.07,ESE,112,0.0,1.0,91,0.00,,,-99.99,WeatherLink 6.0.3,2013-10-08 18:30:00,
2013-10-08 14:34:00,69.5,53.6,30.10,East,96,3.0,9.0,57,0.00,,,0.00,Wunderground v.1.15,2013-10-08 18:34:00,
2013-10-08 14:39:00,70.1,54.2,30.09,NW,317,0.0,9.0,57,0.00,,,0.00,Wunderground v.1.15,2013-10-08 18:39:00,
2013-10-08 14:44:00,70.4,54.0,30.09,NW,321,1.0,5.0,56,0.00,,,0.00,Wunderground v.1.15,2013-10-08 18:44:00,
2013-10-08 14:49:00,70.2,53.3,30.09,NW,322,2.0,9.0,55,0.00,,,0.00,Wunderground v.1.15,2013-10-08 18:49:00,
2013-10-08 14:54:00,69.4,54.0,30.09,NNE,30,0.0,11.0,58,0.00,,,0.00,Wunderground v.1.15,2013-10-08 18:54:00,
2013-10-08 14:59:00,70.2,53.8,30.09,NNE,13,4.0,11.0,56,0.00,,,0.00,Wunderground v.1.15,2013-10-08 18:59:00,
2013-10-08 15:00:00,50.5,48.0,30.06,North,-999,0.0,0.0,91,0.00,,,-99.99,WeatherLink 6.0.3,2013-10-08 19:00:00,
2013-10-08 15:04:00,70.7,54.2,30.09,ESE,102,4.0,7.0,56,0.00,,,0.00,Wunderground v.1.15,2013-10-08 19:04:00,
2013-10-08 15:09:00,71.0,55.0,30.09,SE,134,1.0,10.0,57,0.00,,,0.00,Wunderground v.1.15,2013-10-08 19:09:00,
2013-10-08 15:14:00,71.1,54.1,30.09,ESE,113,6.0,12.0,55,0.00,,,0.00,Wunderground v.1.15,2013-10-08 19:14:00,
2013-10-08 15:19:00,71.0,53.5,30.09,ESE,123,6.0,12.0,54,0.00,,,0.00,Wunderground v.1.15,2013-10-08 19:19:00,
2013-10-08 15:24:00,71.1,54.1,30.09,East,83,2.0,7.0,55,0.00,,,0.00,Wunderground v.1.15,2013-10-08 19:24:00,
2013-10-08 15:29:00,71.9,54.3,30.09,SSE,157,1.0,1.0,54,0.00,,,0.00,Wunderground v.1.15,2013-10-08 19:29:00,
2013-10-08 15:30:00,50.6,47.5,30.05,ESE,112,0.0,1.0,89,0.00,,,-99.99,WeatherLink 6.0.3,2013-10-08 19:30:00,
2013-10-08 15:34:00,71.7,53.7,30.09,SE,132,0.0,7.0,53,0.00,,,0.00,Wunderground v.1.15,2013-10-08 19:34:00,
2013-10-08 15:39:00,71.7,54.2,30.09,East,91,0.0,2.0,54,0.00,,,0.00,Wunderground v.1.15,2013-10-08 19:39:00,
2013-10-08 15:45:00,71.6,54.1,30.09,East,86,0.0,9.0,54,0.00,,,0.00,Wunderground v.1.15,2013-10-08 19:45:00,
2013-10-08 15:50:00,71.3,53.8,30.09,ESE,121,4.0,4.0,54,0.00,,,0.00,Wunderground v.1.15,2013-10-08 19:50:00,
2013-10-08 15:55:00,70.8,53.8,30.09,ENE,65,1.0,7.0,55,0.00,,,0.00,Wunderground v.1.15,2013-10-08 19:55:00,
2013-10-08 16:00:00,70.3,53.9,30.09,NNW,347,0.0,3.0,56,0.00,,,0.00,Wunderground v.1.15,2013-10-08 20:00:00,
2013-10-08 16:05:00,69.6,53.2,30.09,SE,138,2.0,11.0,56,0.00,,,0.00,Wunderground v.1.15,2013-10-08 20:05:00,
2013-10-08 16:10:00,68.8,52.9,30.09,East,101,2.0,3.0,57,0.00,,,0.00,Wunderground v.1.15,2013-10-08 20:10:00,
2013-10-08 16:15:00,68.8,53.4,30.09,ESE,110,3.0,7.0,58,0.00,,,0.00,Wunderground v.1.15,2013-10-08 20:15:00,
2013-10-08 16:20:00,68.6,52.8,30.09,East,85,4.0,9.0,57,0.00,,,0.00,Wunderground v.1.15,2013-10-08 20:20:00,
2013-10-08 16:25:00,68.3,53.4,30.09,SE,138,5.0,9.0,59,0.00,,,0.00,Wunderground v.1.15,2013-10-08 20:25:00,
2013-10-08 16:30:00,68.1,53.2,30.10,ESE,123,8.0,8.0,59,0.00,,,0.00,Wunderground v.1.15,2013-10-08 20:30:00,
2013-10-08 16:35:00,67.7,52.9,30.10,SE,128,7.0,10.0,59,0.00,,,0.00,Wunderground v.1.15,2013-10-08 20:35:00,
2013-10-08 16:40:00,67.6,53.2,30.10,East,101,0.0,4.0,60,0.00,,,0.00,Wunderground v.1.15,2013-10-08 20:40:00,
2013-10-08 16:45:00,67.5,52.2,30.10,ESE,115,9.0,12.0,58,0.00,,,0.00,Wunderground v.1.15,2013-10-08 20:45:00,
2013-10-08 16:50:00,67.0,51.7,30.10,ESE,113,5.0,5.0,58,0.00,,,0.00,Wunderground v.1.15,2013-10-08 20:50:00,
2013-10-08 16:55:00,66.9,51.2,30.10,ENE,69,0.0,5.0,57,0.00,,,0.00,Wunderground v.1.15,2013-10-08 20:55:00,
2013-10-08 17:00:00,66.6,50.9,30.10,ESE,103,1.0,2.0,57,0.00,,,0.00,Wunderground v.1.15,2013-10-08 21:00:00,
2013-10-08 17:05:00,66.3,51.1,30.10,East,79,2.0,7.0,58,0.00,,,0.00,Wunderground v.1.15,2013-10-08 21:05:00,
2013-10-08 17:10:00,66.0,50.8,30.11,SE,130,1.0,2.0,58,0.00,,,0.00,Wunderground v.1.15,2013-10-08 21:10:00,
2013-10-08 17:15:00,65.9,51.2,30.11,ESE,110,2.0,11.0,59,0.00,,,0.00,Wunderground v.1.15,2013-10-08 21:15:00,
2013-10-08 17:20:00,65.8,51.1,30.11,ESE,105,7.0,7.0,59,0.00,,,0.00,Wunderground v.1.15,2013-10-08 21:20:00,
2013-10-08 17:25:00,65.6,51.3,30.11,ESE,114,7.0,11.0,60,0.00,,,0.00,Wunderground v.1.15,2013-10-08 21:25:00,
2013-10-08 17:30:00,65.5,51.2,30.11,ESE,107,2.0,6.0,60,0.00,,,0.00,Wunderground v.1.15,2013-10-08 21:30:00,
2013-10-08 17:35:00,65.5,52.1,30.11,ESE,107,0.0,6.0,62,0.00,,,0.00,Wunderground v.1.15,2013-10-08 21:35:00,
2013-10-08 17:40:00,65.5,51.7,30.11,ESE,121,0.0,1.0,61,0.00,,,0.00,Wunderground v.1.15,2013-10-08 21:40:00,
2013-10-08 17:45:00,65.5,51.2,30.11,ESE,105,3.0,8.0,60,0.00,,,0.00,Wunderground v.1.15,2013-10-08 21:45:00,
2013-10-08 17:50:00,65.4,52.0,30.11,ESE,107,0.0,2.0,62,0.00,,,0.00,Wunderground v.1.15,2013-10-08 21:50:00,
2013-10-08 17:55:00,65.5,52.1,30.11,ESE,107,0.0,2.0,62,0.00,,,0.00,Wunderground v.1.15,2013-10-08 21:55:00,
2013-10-08 18:00:00,65.5,51.7,30.11,ESE,107,0.0,0.0,61,0.00,,,0.00,Wunderground v.1.15,2013-10-08 22:00:00,
2013-10-08 18:05:00,65.4,51.6,30.11,NNW,333,0.0,2.0,61,0.00,,,0.00,Wunderground v.1.15,2013-10-08 22:05:00,
2013-10-08 18:11:00,65.3,51.9,30.11,ENE,57,0.0,2.0,62,0.00,,,0.00,Wunderground v.1.15,2013-10-08 22:11:00,
2013-10-08 18:16:00,65.2,51.8,30.11,ENE,57,0.0,2.0,62,0.00,,,0.00,Wunderground v.1.15,2013-10-08 22:16:00,
2013-10-08 18:21:00,65.2,52.3,30.12,SE,127,0.0,0.0,63,0.00,,,0.00,Wunderground v.1.15,2013-10-08 22:21:00,
2013-10-08 18:26:00,65.0,52.1,30.12,SE,127,0.0,1.0,63,0.00,,,0.00,Wunderground v.1.15,2013-10-08 22:26:00,
2013-10-08 18:30:00,48.1,46.7,30.04,ESE,112,0.0,2.0,95,0.00,,,-99.99,WeatherLink 6.0.3,2013-10-08 22:30:00,
2013-10-08 18:31:00,64.9,52.0,30.12,SE,127,0.0,1.0,63,0.00,,,0.00,Wunderground v.1.15,2013-10-08 22:31:00,
2013-10-08 18:36:00,64.7,52.7,30.12,NNW,329,0.0,2.0,65,0.00,,,0.00,Wunderground v.1.15,2013-10-08 22:36:00,
2013-10-08 18:41:00,64.5,52.9,30.11,NNW,330,0.0,0.0,66,0.00,,,0.00,Wunderground v.1.15,2013-10-08 22:41:00,
2013-10-08 18:46:00,64.2,52.6,30.12,NNW,330,0.0,0.0,66,0.00,,,0.00,Wunderground v.1.15,2013-10-08 22:46:00,
2013-10-08 18:51:00,63.8,52.6,30.12,NNW,330,0.0,0.0,67,0.00,,,0.00,Wunderground v.1.15,2013-10-08 22:51:00,
2013-10-08 18:56:00,63.4,52.2,30.12,NNW,330,0.0,0.0,67,0.00,,,0.00,Wunderground v.1.15,2013-10-08 22:56:00,
2013-10-08 19:00:00,49.2,47.5,30.04,ESE,112,0.0,2.0,94,0.00,,,-99.99,WeatherLink 6.0.3,2013-10-08 23:00:00,
2013-10-08 19:01:00,63.1,52.8,30.12,NNW,330,0.0,0.0,69,0.00,,,0.00,Wunderground v.1.15,2013-10-08 23:01:00,
2013-10-08 19:06:00,62.8,53.3,30.12,NNW,330,0.0,0.0,71,0.00,,,0.00,Wunderground v.1.15,2013-10-08 23:06:00,
2013-10-08 19:11:00,62.5,53.0,30.12,NNW,330,0.0,0.0,71,0.00,,,0.00,Wunderground v.1.15,2013-10-08 23:11:00,
2013-10-08 19:16:00,62.1,54.1,30.12,NNW,330,0.0,0.0,75,0.00,,,0.00,Wunderground v.1.15,2013-10-08 23:16:00,
2013-10-08 19:21:00,61.6,53.2,30.13,NNW,330,0.0,0.0,74,0.00,,,0.00,Wunderground v.1.15,2013-10-08 23:21:00,
2013-10-08 19:26:00,61.3,52.6,30.13,NNW,348,0.0,2.0,73,0.00,,,0.00,Wunderground v.1.15,2013-10-08 23:26:00,
2013-10-08 19:30:00,49.5,47.8,30.04,ESE,112,0.0,3.0,94,0.00,,,-99.99,WeatherLink 6.0.3,2013-10-08 23:30:00,
2013-10-08 19:31:00,61.2,52.8,30.13,NNW,348,0.0,0.0,74,0.00,,,0.00,Wunderground v.1.15,2013-10-08 23:31:00,
2013-10-08 19:36:00,61.1,52.7,30.13,NNW,348,0.0,0.0,74,0.00,,,0.00,Wunderground v.1.15,2013-10-08 23:36:00,
2013-10-08 19:41:00,61.1,52.7,30.13,NNW,348,0.0,0.0,74,0.00,,,0.00,Wunderground v.1.15,2013-10-08 23:41:00,
2013-10-08 19:46:00,61.2,52.8,30.14,North,350,0.0,1.0,74,0.00,,,0.00,Wunderground v.1.15,2013-10-08 23:46:00,
2013-10-08 19:51:00,61.1,53.1,30.14,North,349,0.0,0.0,75,0.00,,,0.00,Wunderground v.1.15,2013-10-08 23:51:00,
2013-10-08 19:56:00,61.1,53.1,30.14,North,349,0.0,0.0,75,0.00,,,0.00,Wunderground v.1.15,2013-10-08 23:56:00,
2013-10-08 20:00:00,48.8,47.2,30.04,NW,315,0.0,2.0,94,0.00,,,-99.99,WeatherLink 6.0.3,2013-10-09 00:00:00,
2013-10-08 20:01:00,61.0,53.0,30.14,North,349,0.0,0.0,75,0.00,,,0.00,Wunderground v.1.15,2013-10-09 00:01:00,
2013-10-08 20:07:00,60.9,53.3,30.15,North,350,0.0,0.0,76,0.00,,,0.00,Wunderground v.1.15,2013-10-09 00:07:00,
2013-10-08 20:12:00,60.9,52.9,30.15,North,350,0.0,0.0,75,0.00,,,0.00,Wunderground v.1.15,2013-10-09 00:12:00,
2013-10-08 20:17:00,60.8,52.8,30.15,North,350,0.0,1.0,75,0.00,,,0.00,Wunderground v.1.15,2013-10-09 00:17:00,
2013-10-08 20:22:00,60.7,52.4,30.15,East,99,2.0,4.0,74,0.00,,,0.00,Wunderground v.1.15,2013-10-09 00:22:00,
2013-10-08 20:27:00,60.6,51.9,30.15,East,97,0.0,5.0,73,0.00,,,0.00,Wunderground v.1.15,2013-10-09 00:27:00,
2013-10-08 20:30:00,48.7,47.1,30.05,NNE,22,0.0,2.0,94,0.00,,,-99.99,WeatherLink 6.0.3,2013-10-09 00:30:00,
2013-10-08 20:32:00,60.5,51.4,30.15,ESE,103,1.0,4.0,72,0.00,,,0.00,Wunderground v.1.15,2013-10-09 00:32:00,
2013-10-08 20:37:00,60.3,50.9,30.15,ESE,117,2.0,6.0,71,0.00,,,0.00,Wunderground v.1.15,2013-10-09 00:37:00,
2013-10-08 20:42:00,60.2,50.8,30.16,ESE,117,1.0,2.0,71,0.00,,,0.00,Wunderground v.1.15,2013-10-09 00:42:00,
2013-10-08 20:47:00,60.0,50.6,30.16,ESE,117,0.0,2.0,71,0.00,,,0.00,Wunderground v.1.15,2013-10-09 00:47:00,
2013-10-08 20:52:00,59.9,50.5,30.16,East,98,0.0,5.0,71,0.00,,,0.00,Wunderground v.1.15,2013-10-09 00:52:00,
2013-10-08 20:57:00,59.8,50.0,30.16,ESE,115,0.0,5.0,70,0.00,,,0.00,Wunderground v.1.15,2013-10-09 00:57:00,
2013-10-08 21:00:00,47.9,46.5,30.05,NNE,22,0.0,2.0,95,0.00,,,-99.99,WeatherLink 6.0.3,2013-10-09 01:00:00,
2013-10-08 21:02:00,59.7,50.3,30.16,ESE,115,0.0,1.0,71,0.00,,,0.00,Wunderground v.1.15,2013-10-09 01:02:00,
2013-10-08 21:07:00,59.6,50.2,30.17,ESE,122,0.0,5.0,71,0.00,,,0.00,Wunderground v.1.15,2013-10-09 01:07:00,
2013-10-08 21:12:00,59.5,50.1,30.17,ESE,122,1.0,1.0,71,0.00,,,0.00,Wunderground v.1.15,2013-10-09 01:12:00,
2013-10-08 21:17:00,59.4,50.0,30.17,ESE,122,0.0,1.0,71,0.00,,,0.00,Wunderground v.1.15,2013-10-09 01:17:00,
2013-10-08 21:22:00,59.3,50.3,30.17,ESE,119,0.0,5.0,72,0.00,,,0.00,Wunderground v.1.15,2013-10-09 01:22:00,
2013-10-08 21:27:00,59.1,50.1,30.18,ESE,119,0.0,5.0,72,0.00,,,0.00,Wunderground v.1.15,2013-10-09 01:27:00,
2013-10-08 21:30:00,47.5,46.1,30.06,NNE,22,0.0,2.0,95,0.00,,,-99.99,WeatherLink 6.0.3,2013-10-09 01:30:00,
2013-10-08 21:32:00,59.1,50.1,30.18,ESE,119,0.0,1.0,72,0.00,,,0.00,Wunderground v.1.15,2013-10-09 01:32:00,
2013-10-08 21:37:00,59.0,50.7,30.18,ESE,119,0.0,1.0,74,0.00,,,0.00,Wunderground v.1.15,2013-10-09 01:37:00,
2013-10-08 21:42:00,59.0,50.7,30.18,ESE,119,0.0,0.0,74,0.00,,,0.00,Wunderground v.1.15,2013-10-09 01:42:00,
2013-10-08 21:47:00,58.9,51.0,30.18,ESE,119,0.0,0.0,75,0.00,,,0.00,Wunderground v.1.15,2013-10-09 01:47:00,
2013-10-08 21:52:00,58.5,51.3,30.18,ESE,119,0.0,0.0,77,0.00,,,0.00,Wunderground v.1.15,2013-10-09 01:52:00,
2013-10-08 21:57:00,58.2,51.0,30.18,ESE,119,0.0,0.0,77,0.00,,,0.00,Wunderground v.1.15,2013-10-09 01:57:00,
2013-10-08 22:00:00,49.5,48.1,30.06,ENE,67,0.0,2.0,95,0.00,,,-99.99,WeatherLink 6.0.3,2013-10-09 02:00:00,
2013-10-08 22:02:00,57.8,51.0,30.18,ESE,119,0.0,0.0,78,0.00,,,0.00,Wunderground v.1.15,2013-10-09 02:02:00,
2013-10-08 22:07:00,57.6,50.8,30.18,ESE,119,0.0,0.0,78,0.00,,,0.00,Wunderground v.1.15,2013-10-09 02:07:00,
2013-10-08 22:12:00,57.3,50.8,30.18,ESE,119,0.0,0.0,79,0.00,,,0.00,Wunderground v.1.15,2013-10-09 02:12:00,
2013-10-08 22:17:00,57.0,50.2,30.18,ESE,119,0.0,0.0,78,0.00,,,0.00,Wunderground v.1.15,2013-10-09 02:17:00,
2013-10-08 22:22:00,56.7,50.3,30.18,ESE,119,0.0,0.0,79,0.00,,,0.00,Wunderground v.1.15,2013-10-09 02:22:00,
2013-10-08 22:27:00,56.4,50.3,30.18,ESE,119,0.0,0.0,80,0.00,,,0.00,Wunderground v.1.15,2013-10-09 02:27:00,
2013-10-08 22:30:00,51.6,49.4,30.06,North,0,0.0,2.0,92,0.00,,,-99.99,WeatherLink 6.0.3,2013-10-09 02:30:00,
2013-10-08 22:32:00,56.2,50.4,30.18,ESE,119,0.0,0.0,81,0.00,,,0.00,Wunderground v.1.15,2013-10-09 02:32:00,
2013-10-08 22:37:00,56.1,50.0,30.18,ESE,119,0.0,0.0,80,0.00,,,0.00,Wunderground v.1.15,2013-10-09 02:37:00,
2013-10-08 22:42:00,56.1,50.3,30.18,ESE,119,0.0,0.0,81,0.00,,,0.00,Wunderground v.1.15,2013-10-09 02:42:00,
2013-10-08 22:47:00,55.9,50.2,30.18,ESE,119,0.0,0.0,81,0.00,,,0.00,Wunderground v.1.15,2013-10-09 02:47:00,
2013-10-08 22:52:00,55.6,50.2,30.18,ESE,119,0.0,1.0,82,0.00,,,0.00,Wunderground v.1.15,2013-10-09 02:52:00,
2013-10-08 22:57:00,55.4,49.7,30.18,ESE,119,0.0,1.0,81,0.00,,,0.00,Wunderground v.1.15,2013-10-09 02:57:00,
2013-10-08 23:00:00,54.6,50.8,30.06,NNE,22,0.0,2.0,87,0.00,,,-99.99,WeatherLink 6.0.3,2013-10-09 03:00:00,
2013-10-08 23:02:00,55.2,49.5,30.18,ESE,119,0.0,0.0,81,0.00,,,0.00,Wunderground v.1.15,2013-10-09 03:02:00,
2013-10-08 23:07:00,55.1,49.7,30.18,ESE,119,0.0,0.0,82,0.00,,,0.00,Wunderground v.1.15,2013-10-09 03:07:00,
2013-10-08 23:12:00,55.0,49.9,30.18,ESE,119,0.0,0.0,83,0.00,,,0.00,Wunderground v.1.15,2013-10-09 03:12:00,
2013-10-08 23:17:00,54.7,50.0,30.18,ESE,119,0.0,0.0,84,0.00,,,0.00,Wunderground v.1.15,2013-10-09 03:17:00,
2013-10-08 23:22:00,54.4,50.0,30.18,ESE,119,0.0,0.0,85,0.00,,,0.00,Wunderground v.1.15,2013-10-09 03:22:00,
2013-10-08 23:27:00,54.1,50.0,30.18,ESE,119,0.0,0.0,86,0.00,,,0.00,Wunderground v.1.15,2013-10-09 03:27:00,
2013-10-08 23:30:00,57.7,52.9,30.05,NNE,22,0.0,3.0,84,0.00,,,-99.99,WeatherLink 6.0.3,2013-10-09 03:30:00,
2013-10-08 23:32:00,53.9,49.8,30.18,ESE,119,0.0,0.0,86,0.00,,,0.00,Wunderground v.1.15,2013-10-09 03:32:00,
2013-10-08 23:37:00,53.8,50.3,30.18,ESE,119,0.0,0.0,88,0.00,,,0.00,Wunderground v.1.15,2013-10-09 03:37:00,
2013-10-08 23:42:00,53.7,50.2,30.18,ESE,119,0.0,0.0,88,0.00,,,0.00,Wunderground v.1.15,2013-10-09 03:42:00,
2013-10-08 23:47:00,53.6,50.1,30.18,ESE,119,0.0,0.0,88,0.00,,,0.00,Wunderground v.1.15,2013-10-09 03:47:00,
2013-10-08 23:52:00,53.4,49.6,30.17,ESE,119,0.0,0.0,87,0.00,,,0.00,Wunderground v.1.15,2013-10-09 03:52:00,
2013-10-08 23:57:00,53.2,50.0,30.17,ESE,119,0.0,0.0,89,0.00,,,0.00,Wunderground v.1.15,2013-10-09 03:57:00,